• Join FlightAware (Why Join?)
  • Login
  • US Flag 
08:38PM EST


 

Airport Tracker/Info


-or-


 

Live Flight TrackerFlight Track Log ✈ N42HN ✈ 03-Jul-2013 ✈ KGMU - KBKL

Flight Track Log - Related Links

Times and Time Zones

All times are in EDT time to prevent confusion due to time zone crossing. See the N42HN flight status page for this flight to view local times or setup timezone preferences in your user account.

Time Position Orientation Groundspeed Altitude Reporting Facility
EDT Latitude Longitude Course Direction KTS MPH feet Rate Location/Type
11:47PM 34.9836 -82.2617 North 369 425 6,900  Level Atlanta Center
11:48PM 35.0475 -82.2197 28° Northeast 326 375 9,500 2,400 Climbing Atlanta Center
11:49PM 35.1217 -82.1572 35° Northeast 309 356 11,700 2,350 Climbing Atlanta Center
11:50PM 35.2064 -82.0917 32° Northeast 338 389 14,200 2,450 Climbing Atlanta Center
11:51PM 35.4617 -82.2833 North  Level FlightAware Approximate
11:51PM 35.2992 -82.0283 29° Northeast 368 423 16,600  Level Atlanta Center
11:52PM 35.5677 -82.2773 North  Level FlightAware Approximate
11:52PM 35.4044 -81.9569 29° Northeast 377 434 18,400  Level Atlanta Center
11:53PM 35.5211 -81.9489 North 401 461 20,400 1,850 Climbing Atlanta Center
11:54PM 35.6378 -81.9433 North 413 475 22,100 1,600 Climbing Atlanta Center
11:55PM 35.7567 -81.9403 North 423 487 23,600 1,450 Climbing Atlanta Center
11:56PM 35.8797 -81.9347 North 429 494 25,000 1,350 Climbing Atlanta Center
11:57PM 36.0025 -81.9314 North 442 509 26,300 1,200 Climbing Atlanta Center
11:58PM 36.1172 -81.9208 North 442 509 27,400 1,100 Climbing Atlanta Center
11:59PM 36.2444 -81.9200 360° North 448 516 28,500 1,100 Climbing Atlanta Center
12:00AM 36.3714 -81.9114 North 448 516 29,600 1,150 Climbing Atlanta Center
12:01AM 36.5006 -81.9081 North 460 529 30,800 1,150 Climbing Atlanta Center
12:02AM 36.6278 -81.8994 North 460 529 31,900 950 Climbing Atlanta Center
12:03AM 36.7569 -81.8933 North 460 529 32,700 872 Climbing Atlanta Center
12:04AM 36.8922 -81.8900 North 473 544 33,600 821 Climbing Indianapolis Center
12:05AM 37.0228 -81.8825 North 471 542 34,300 793 Climbing Indianapolis Center
12:06AM 37.1556 -81.8822 360° North 473 544 35,200 885 Climbing Indianapolis Center
12:07AM 37.2858 -81.8750 North 469 540 36,100 787 Climbing Indianapolis Center
12:08AM 37.4164 -81.8692 North 468 539 36,800 443 Climbing Indianapolis Center
12:09AM 37.5478 -81.8642 North 472 543 37,000 98 Climbing Indianapolis Center
12:10AM 37.6814 -81.8583 North 479 551 37,000  Level Indianapolis Center
12:11AM 37.8153 -81.8494 North 482 555 37,000  Level Indianapolis Center
12:12AM 37.9592 -81.8461 North 485 558 37,000  Level Indianapolis Center
12:13AM 38.0936 -81.8381 North 482 555 37,000  Level Indianapolis Center
12:14AM 38.2303 -81.8317 North 487 560 37,000  Level Indianapolis Center
12:15AM 38.3653 -81.8311 360° North 484 557 37,000  Level Indianapolis Center
12:16AM 38.5025 -81.8206 North 489 563 37,000  Level Indianapolis Center
12:17AM 38.6406 -81.8186 North 487 560 37,000  Level Indianapolis Center
12:18AM 38.7800 -81.8086 North 491 565 37,000  Level Indianapolis Center
12:19AM 38.9175 -81.8036 North 488 562 37,000  Level Indianapolis Center
12:20AM 39.0550 -81.7964 North 491 565 37,000  Level Indianapolis Center
12:21AM 39.1933 -81.7917 North 494 568 37,000  Level Indianapolis Center
12:22AM 39.3308 -81.7847 North 494 568 37,000  Level Indianapolis Center
12:23AM 39.4692 -81.7775 North 494 568 37,000 -496 Level Indianapolis Center
12:24AM 39.6081 -81.7725 North 497 572 36,000 -992 Descending Indianapolis Center
12:25AM 39.7517 -81.7672 North 499 574 35,000 -1,328 Descending Indianapolis Center
12:26AM 39.8908 -81.7572 North 497 572 33,300 -2,508 Descending Indianapolis Center
12:27AM 40.0444 -81.7592 359° North 503 579 29,900 -2,852 Descending Indianapolis Center
12:28AM 40.1722 -81.7719 356° North 502 578 27,500 -2,678 Descending Indianapolis Center
12:29AM 40.3236 -81.7639 North 497 572 24,500 -2,926 Descending Indianapolis Center
12:30AM 40.4583 -81.7558 North 481 554 21,600 -2,852 Descending Indianapolis Center
12:31AM 40.5875 -81.7469 North 462 532 18,700 -2,632 Descending Indianapolis Center
12:32AM 40.6886 -81.7414 North 445 512 16,600 -2,283 Descending Cleveland Center
12:33AM 40.8056 -81.7297 North 424 488 14,400 -2,500 Descending Cleveland Center
12:34AM 40.9139 -81.7261 North 396 456 11,600 -1,850 Descending Cleveland Center
12:35AM 41.0142 -81.7142 North 368 423 10,700 -1,200 Descending Cleveland Center
12:36AM 41.0958 -81.6881 14° North 318 366 9,200 -1,850 Descending Cleveland Center
12:37AM 41.1772 -81.6728 North 293 337 7,000 -1,850 Descending Cleveland Center
12:38AM 41.2544 -81.6492 13° North 293 337 5,500 -1,500 Descending Cleveland Center
12:39AM 41.3172 -81.6364 North 266 306 4,000 -1,250 Descending Cleveland Center
12:40AM 41.3842 -81.6181 12° North 248 285 3,000 -500 Descending Cleveland Center
12:41AM 41.4467 -81.6025 11° North 230 265 3,000  Level Cleveland Center